• In Belgium
  • List of Countries
  • For 7 days
  • Water Temperature
  • Satellite Maps
  • Weather Map
  • Weather Widgets
  • user-avatar
    Login

    Hourly Weather Mechlin

    Today, 25 April, Wednesday

    Time Temperature Precipitation Wind Pressure Humidity
    00:00 +13°C° 0 mm 4 mps 756 mmHg 86%
    01:00 +13°C° 0.1 mm 5 mps 756 mmHg 87%
    02:00 +11°C° 0.1 mm 6 mps 756 mmHg 87%
    03:00 +11°C° 0.1 mm 7 mps 756 mmHg 88%
    04:00 +11°C° 0.1 mm 6 mps 756 mmHg 87%
    05:00 +11°C° 0.1 mm 6 mps 757 mmHg 86%
    06:00 +11°C° 0.1 mm 6 mps 757 mmHg 84%
    07:00 +11°C° 0.1 mm 6 mps 757 mmHg 81%
    08:00 +11°C° 0.1 mm 6 mps 758 mmHg 77%
    09:00 +13°C° 0.1 mm 6 mps 758 mmHg 74%
    10:00 +13°C° 0.2 mm 6 mps 758 mmHg 70%
    11:00 +14°C° 0.2 mm 6 mps 758 mmHg 66%
    12:00 +14°C° 0.2 mm 6 mps 759 mmHg 63%
    13:00 +14°C° 0.2 mm 7 mps 758 mmHg 61%
    14:00 +14°C° 0.2 mm 7 mps 758 mmHg 58%
    15:00 +14°C° 0.2 mm 7 mps 758 mmHg 56%
    16:00 +12°C° 0.1 mm 7 mps 759 mmHg 60%
    17:00 +11°C° 0.1 mm 6 mps 759 mmHg 64%
    18:00 +10°C° 0.1 mm 6 mps 759 mmHg 69%
    19:00 +10°C° 0.1 mm 6 mps 759 mmHg 71%
    20:00 +9°C° 0.1 mm 6 mps 760 mmHg 74%
    21:00 +8°C° 0.1 mm 6 mps 760 mmHg 77%
    22:00 +8°C° 0 mm 6 mps 760 mmHg 79%
    23:00 +7°C° 0 mm 6 mps 760 mmHg 80%

    Tomorrow, 26 April, Thursday

    Time Temperature Precipitation Wind Pressure Humidity
    00:00 +7°C° 0 mm 6 mps 760 mmHg 82%
    01:00 +7°C° 0 mm 6 mps 760 mmHg 82%
    02:00 +7°C° 0 mm 6 mps 760 mmHg 82%
    03:00 +5°C° 0 mm 6 mps 760 mmHg 81%
    04:00 +7°C° 0 mm 6 mps 761 mmHg 80%
    05:00 +7°C° 0 mm 6 mps 761 mmHg 78%
    06:00 +7°C° 0 mm 6 mps 761 mmHg 77%
    07:00 +8°C° 0 mm 7 mps 762 mmHg 72%
    08:00 +9°C° 0 mm 7 mps 762 mmHg 66%
    09:00 +11°C° 0 mm 7 mps 762 mmHg 61%
    10:00 +11°C° 0.1 mm 7 mps 762 mmHg 58%
    11:00 +12°C° 0.1 mm 7 mps 762 mmHg 55%
    12:00 +14°C° 0.1 mm 7 mps 762 mmHg 51%
    13:00 +14°C° 0.1 mm 7 mps 762 mmHg 51%
    14:00 +14°C° 0.1 mm 7 mps 762 mmHg 51%
    15:00 +14°C° 0.1 mm 6 mps 762 mmHg 50%
    16:00 +13°C° 0 mm 5 mps 762 mmHg 55%
    17:00 +12°C° 0 mm 5 mps 762 mmHg 59%
    18:00 +12°C° 0 mm 4 mps 762 mmHg 64%
    19:00 +10°C° 0 mm 3 mps 762 mmHg 67%
    20:00 +9°C° 0 mm 3 mps 762 mmHg 70%
    21:00 +8°C° 0 mm 3 mps 762 mmHg 73%
    22:00 +7°C° 0 mm 3 mps 762 mmHg 74%
    23:00 +7°C° 0 mm 3 mps 762 mmHg 76%

    Day after tomorrow, 27 April, Friday

    Time Temperature Precipitation Wind Pressure Humidity
    00:00 +6°C° 0 mm 2 mps 761 mmHg 77%
    01:00 +7°C° 0 mm 2 mps 761 mmHg 76%
    02:00 +7°C° 0 mm 2 mps 760 mmHg 75%
    03:00 +7°C° 0 mm 2 mps 759 mmHg 75%
    04:00 +7°C° 0 mm 3 mps 759 mmHg 74%
    05:00 +8°C° 0 mm 3 mps 758 mmHg 74%
    06:00 +9°C° 0 mm 3 mps 758 mmHg 73%
    07:00 +10°C° 0 mm 4 mps 757 mmHg 70%
    08:00 +10°C° 0 mm 5 mps 757 mmHg 66%
    09:00 +13°C° 0 mm 6 mps 756 mmHg 63%
    10:00 +14°C° 0 mm 6 mps 756 mmHg 60%
    11:00 +15°C° 0 mm 7 mps 755 mmHg 57%
    12:00 +16°C° 0 mm 7 mps 755 mmHg 53%
    13:00 +16°C° 0.1 mm 8 mps 754 mmHg 56%
    14:00 +16°C° 0.1 mm 8 mps 754 mmHg 59%
    15:00 +15°C° 0.1 mm 8 mps 753 mmHg 62%
    16:00 +13°C° 0.1 mm 8 mps 753 mmHg 64%
    17:00 +12°C° 0.1 mm 9 mps 753 mmHg 65%
    18:00 +11°C° 0.1 mm 9 mps 753 mmHg 66%
    19:00 +10°C° 0 mm 9 mps 754 mmHg 67%
    20:00 +10°C° 0 mm 9 mps 754 mmHg 67%
    21:00 +8°C° 0 mm 9 mps 755 mmHg 68%
    22:00 +9°C° 0 mm 8 mps 756 mmHg 70%
    23:00 +9°C° 0 mm 8 mps 756 mmHg 73%

    28 April, Saturday

    Time Temperature Precipitation Wind Pressure Humidity
    00:00 +8°C° 0 mm 7 mps 757 mmHg 75%
    01:00 +8°C° 0 mm 7 mps 757 mmHg 75%
    02:00 +8°C° 0 mm 6 mps 758 mmHg 75%
    03:00 +7°C° 0 mm 6 mps 759 mmHg 74%
    04:00 +7°C° 0 mm 5 mps 759 mmHg 76%
    05:00 +7°C° 0 mm 5 mps 760 mmHg 77%
    06:00 +7°C° 0 mm 5 mps 760 mmHg 78%
    07:00 +8°C° 0 mm 4 mps 761 mmHg 74%
    08:00 +10°C° 0 mm 4 mps 761 mmHg 70%
    09:00 +11°C° 0 mm 4 mps 762 mmHg 66%
    10:00 +11°C° 0 mm 4 mps 762 mmHg 61%
    11:00 +12°C° 0 mm 3 mps 762 mmHg 57%
    12:00 +13°C° 0 mm 3 mps 762 mmHg 52%
    13:00 +13°C° 0 mm 3 mps 762 mmHg 50%
    14:00 +14°C° 0 mm 3 mps 761 mmHg 48%
    15:00 +15°C° 0 mm 2 mps 761 mmHg 46%
    16:00 +14°C° 0 mm 2 mps 761 mmHg 50%
    17:00 +13°C° 0 mm 2 mps 761 mmHg 55%
    18:00 +13°C° 0 mm 2 mps 761 mmHg 59%
    19:00 +10°C° 0 mm 3 mps 761 mmHg 61%
    20:00 +9°C° 0 mm 3 mps 762 mmHg 64%
    21:00 +8°C° 0 mm 3 mps 762 mmHg 66%
    22:00 +8°C° 0 mm 3 mps 762 mmHg 68%
    23:00 +7°C° 0 mm 4 mps 761 mmHg 70%

    29 April, Sunday

    Time Temperature Precipitation Wind Pressure Humidity
    00:00 +7°C° 0 mm 4 mps 761 mmHg 72%
    01:00 +7°C° 0 mm 4 mps 761 mmHg 73%
    02:00 +7°C° 0 mm 4 mps 760 mmHg 73%
    03:00 +7°C° 0 mm 5 mps 760 mmHg 74%
    04:00 +7°C° 0.2 mm 5 mps 760 mmHg 76%
    05:00 +7°C° 0.2 mm 6 mps 759 mmHg 78%
    06:00 +7°C° 0.2 mm 6 mps 759 mmHg 81%
    07:00 +7°C° 2.4 mm 6 mps 759 mmHg 84%
    08:00 +7°C° 2.4 mm 6 mps 759 mmHg 87%
    09:00 +7°C° 2.4 mm 6 mps 759 mmHg 90%
    10:00 +8°C° 0.5 mm 7 mps 758 mmHg 88%
    11:00 +8°C° 0.5 mm 7 mps 758 mmHg 87%
    12:00 +9°C° 0.5 mm 8 mps 757 mmHg 85%
    13:00 +10°C° 0.2 mm 7 mps 757 mmHg 84%
    14:00 +10°C° 0.2 mm 7 mps 756 mmHg 83%
    15:00 +11°C° 0.2 mm 7 mps 756 mmHg 82%
    16:00 +11°C° 0.6 mm 7 mps 755 mmHg 84%
    17:00 +10°C° 0.6 mm 7 mps 755 mmHg 86%
    18:00 +10°C° 0.6 mm 7 mps 755 mmHg 89%
    19:00 +10°C° 0.1 mm 6 mps 755 mmHg 90%
    20:00 +9°C° 0.1 mm 6 mps 755 mmHg 91%
    21:00 +9°C° 0.1 mm 6 mps 755 mmHg 92%
    22:00 +9°C° 0.1 mm 5 mps 755 mmHg 93%
    23:00 +10°C° 0.1 mm 5 mps 755 mmHg 93%

    30 April, Monday

    Time Temperature Precipitation Wind Pressure Humidity
    00:00 +11°C° 0.1 mm 4 mps 754 mmHg 94%
    01:00 +11°C° 0.6 mm 4 mps 754 mmHg 95%
    02:00 +11°C° 0.6 mm 4 mps 754 mmHg 95%
    03:00 +11°C° 0.6 mm 3 mps 754 mmHg 96%
    04:00 +11°C° 0.8 mm 4 mps 754 mmHg 96%
    05:00 +10°C° 0.8 mm 5 mps 753 mmHg 95%
    06:00 +10°C° 0.8 mm 7 mps 753 mmHg 95%
    07:00 +10°C° 0.5 mm 7 mps 753 mmHg 93%
    08:00 +11°C° 0.5 mm 7 mps 753 mmHg 92%
    09:00 +11°C° 0.5 mm 7 mps 753 mmHg 91%
    10:00 +11°C° 0.6 mm 6 mps 753 mmHg 90%
    11:00 +13°C° 0.6 mm 6 mps 753 mmHg 90%
    12:00 +14°C° 0.6 mm 6 mps 753 mmHg 89%
    13:00 +14°C° 0.4 mm 6 mps 753 mmHg 88%
    14:00 +14°C° 0.4 mm 6 mps 754 mmHg 87%
    15:00 +14°C° 0.4 mm 6 mps 754 mmHg 86%
    16:00 +13°C° 0.1 mm 5 mps 754 mmHg 86%
    17:00 +13°C° 0.1 mm 4 mps 754 mmHg 85%
    18:00 +13°C° 0.1 mm 4 mps 755 mmHg 84%
    19:00 +12°C° 0 mm 3 mps 755 mmHg 87%
    20:00 +11°C° 0 mm 3 mps 756 mmHg 89%
    21:00 +10°C° 0 mm 2 mps 756 mmHg 92%
    22:00 +10°C° 0 mm 2 mps 756 mmHg 92%
    23:00 +9°C° 0 mm 2 mps 756 mmHg 92%
    Show more